📊 Raw Sensor Data
Showing records 40951 to 40975 of 84,974 total
| ID | Distance (ft) | Battery V | Battery A | Int Temp (°F) | Int Humid (%) | Ext Temp (°F) | Solar V | RSSI | SNR | Time Stamp |
|---|---|---|---|---|---|---|---|---|---|---|
| 44036 | 15.3 | 3.94 | 0 | 84 | 42 | 78 | 5.10 | -70 | 7 | 06/20/2025 01:30 PM |
| 44035 | 15.3 | 3.94 | 0 | 83 | 42 | 78 | 5.10 | -72 | 7 | 06/20/2025 01:15 PM |
| 44034 | 15.3 | 3.94 | 0 | 81 | 42 | 78 | 5.10 | -72 | 7 | 06/20/2025 01:00 PM |
| 44033 | 15.3 | 3.94 | 0 | 80 | 43 | 77 | 5.10 | -71 | 7 | 06/20/2025 12:45 PM |
| 44032 | 15.3 | 3.94 | 0 | 78 | 43 | 76 | 5.10 | -72 | 7 | 06/20/2025 12:30 PM |
| 44031 | 15.3 | 3.94 | 0 | 77 | 43 | 76 | 5.10 | -70 | 7 | 06/20/2025 12:15 PM |
| 44030 | 15.3 | 3.94 | 0 | 77 | 43 | 76 | 5.10 | -70 | 7 | 06/20/2025 12:00 PM |
| 44029 | 15.3 | 3.94 | 0 | 76 | 43 | 77 | 5.10 | -72 | 7 | 06/20/2025 11:45 AM |
| 44028 | 15.3 | 3.94 | 0 | 75 | 43 | 76 | 5.10 | -72 | 7 | 06/20/2025 11:30 AM |
| 44027 | 15.3 | 4.12 | 0 | 74 | 43 | 75 | 5.10 | -69 | 8 | 06/20/2025 11:15 AM |
| 44026 | 15.3 | 3.94 | 0 | 73 | 42 | 76 | 5.10 | -71 | 8 | 06/20/2025 11:00 AM |
| 44025 | 15.3 | 3.94 | 0 | 72 | 43 | 75 | 5.10 | -71 | 8 | 06/20/2025 10:45 AM |
| 44024 | 15.4 | 3.94 | 0 | 71 | 43 | 72 | 5.10 | -73 | 7 | 06/20/2025 10:30 AM |
| 44023 | 15.3 | 3.94 | 0 | 70 | 43 | 73 | 5.10 | -71 | 8 | 06/20/2025 10:15 AM |
| 44022 | 15.3 | 4.02 | 0 | 69 | 43 | 70 | 5.10 | -73 | 7 | 06/20/2025 10:00 AM |
| 44021 | 15.3 | 3.95 | 0 | 69 | 43 | 70 | 5.10 | -71 | 7 | 06/20/2025 09:45 AM |
| 44020 | 15.3 | 4.01 | 0 | 68 | 43 | 71 | 5.10 | -72 | 7 | 06/20/2025 09:30 AM |
| 44019 | 15.3 | 4.01 | 0 | 67 | 43 | 70 | 5.10 | -70 | 8 | 06/20/2025 09:15 AM |
| 44018 | 15.3 | 3.94 | 0 | 65 | 43 | 67 | 5.10 | -71 | 8 | 06/20/2025 09:00 AM |
| 44017 | 15.3 | 3.94 | 0 | 64 | 43 | 67 | 5.10 | -71 | 7 | 06/20/2025 08:45 AM |
| 44016 | 15.3 | 3.94 | 0 | 63 | 43 | 66 | 5.10 | -71 | 8 | 06/20/2025 08:30 AM |
| 44015 | 15.3 | 3.95 | 0 | 62 | 43 | 65 | 5.10 | -70 | 7 | 06/20/2025 08:15 AM |
| 44014 | 15.2 | 3.94 | 0 | 61 | 43 | 65 | 5.10 | -73 | 8 | 06/20/2025 08:00 AM |
| 44013 | 15.2 | 3.94 | 0 | 61 | 42 | 64 | 5.10 | -72 | 8 | 06/20/2025 07:45 AM |
| 44012 | 15.2 | 4.12 | 0 | 60 | 42 | 64 | 5.10 | -71 | 8 | 06/20/2025 07:30 AM |